| time (UTC) | temp F | wind direction | speed knots | gust knots | rain 1hr in | rain 24hr in | rain mn in | humidity % | barometer mb |
| 20260504044519 | 42 | 162 | 0.0 | 0.0 | 0.00 | 0.00 | 0.00 | 64 | 1012.1 |
| 20260504043010 | 42 | 156 | 0.0 | 1.7 | 0.00 | 0.00 | 0.00 | 66 | 1012.0 |
| 20260504041511 | 40 | 126 | 0.0 | 0.0 | 0.00 | 0.00 | 0.00 | 70 | 1011.9 |
| 20260504040002 | 38 | 162 | 0.0 | 0.0 | 0.00 | 0.00 | 0.00 | 74 | 1011.9 |
| 20260504034501 | 38 | 162 | 0.0 | 0.0 | 0.00 | 0.00 | 0.00 | 73 | 1011.8 |
| 20260504033100 | 38 | 163 | 0.0 | 0.0 | 0.00 | 0.00 | 0.00 | 70 | 1011.7 |
| 20260504031559 | 40 | 163 | 0.0 | 0.0 | 0.00 | 0.00 | 0.00 | 68 | 1011.7 |
| 20260504030059 | 41 | 163 | 0.0 | 0.0 | 0.00 | 0.00 | 0.00 | 67 | 1011.7 |
| 20260504024603 | 42 | 163 | 0.0 | 0.0 | 0.00 | 0.00 | 0.00 | 64 | 1011.8 |
| 20260504023058 | 43 | 163 | 0.0 | 0.0 | 0.00 | 0.00 | 0.00 | 63 | 1011.9 |
| 20260504021557 | 43 | 180 | 0.0 | 0.0 | 0.00 | 0.00 | 0.00 | 61 | 1011.9 |
| 20260504020057 | 44 | 188 | 0.0 | 0.0 | 0.00 | 0.00 | 0.00 | 59 | 1011.7 |
| 20260504014556 | 45 | 188 | 0.0 | 0.0 | 0.00 | 0.00 | 0.00 | 56 | 1011.6 |
| 20260504013113 | 47 | 188 | 0.0 | 0.0 | 0.00 | 0.00 | 0.00 | 52 | 1011.5 |
| 20260504011556 | 48 | 188 | 0.0 | 0.0 | 0.00 | 0.00 | 0.00 | 48 | 1011.4 |
| 20260504010101 | 50 | 188 | 0.0 | 0.0 | 0.00 | 0.00 | 0.00 | 43 | 1011.4 |
| 20260504004607 | 52 | 188 | 0.0 | 0.9 | 0.00 | 0.00 | 0.00 | 40 | 1011.3 |
| 20260504003053 | 53 | 182 | 0.0 | 2.6 | 0.00 | 0.00 | 0.00 | 39 | 1011.2 |
| 20260504001552 | 54 | 188 | 1.7 | 7.8 | 0.00 | 0.00 | 0.00 | 37 | 1011.0 |
| 20260504000051 | 55 | 227 | 0.9 | 8.7 | 0.00 | 0.00 | 0.00 | 36 | 1011.0 |
| 20260503234550 | 56 | 255 | 1.7 | 6.1 | 0.00 | 0.00 | 0.00 | 35 | 1011.0 |
| 20260503233052 | 57 | 225 | 4.3 | 9.6 | 0.00 | 0.00 | 0.00 | 34 | 1010.9 |
| 20260503231549 | 57 | 217 | 3.5 | 12.2 | 0.00 | 0.00 | 0.00 | 33 | 1010.9 |
| 20260503230054 | 58 | 232 | 1.7 | 8.7 | 0.00 | 0.00 | 0.00 | 34 | 1010.9 |
| 20260503224547 | 58 | 241 | 4.3 | 11.3 | 0.00 | 0.00 | 0.00 | 32 | 1010.9 |
| 20260503223046 | 58 | 228 | 5.2 | 13.0 | 0.00 | 0.00 | 0.00 | 34 | 1010.8 |
| 20260503221545 | 58 | 250 | 5.2 | 10.4 | 0.00 | 0.00 | 0.00 | 31 | 1010.9 |
| 20260503220045 | 58 | 250 | 1.7 | 9.6 | 0.00 | 0.00 | 0.00 | 33 | 1010.9 |
| 20260503214547 | 58 | 267 | 3.5 | 12.2 | 0.00 | 0.00 | 0.00 | 33 | 1010.9 |
| 20260503213043 | 58 | 235 | 3.5 | 7.8 | 0.00 | 0.00 | 0.00 | 33 | 1010.7 |
| 20260503211543 | 58 | 238 | 2.6 | 8.7 | 0.00 | 0.00 | 0.00 | 32 | 1010.8 |
| 20260503210042 | 58 | 211 | 5.2 | 10.4 | 0.00 | 0.00 | 0.00 | 32 | 1010.9 |
| 20260503204540 | 59 | 222 | 5.2 | 12.2 | 0.00 | 0.00 | 0.00 | 30 | 1010.8 |
| 20260503203042 | 59 | 238 | 6.1 | 16.5 | 0.00 | 0.00 | 0.00 | 31 | 1011.0 |
| 20260503201533 | 58 | 206 | 9.6 | 18.2 | 0.00 | 0.00 | 0.00 | 31 | 1011.1 |
| 20260503200031 | 58 | 251 | 6.1 | 13.0 | 0.00 | 0.00 | 0.00 | 31 | 1011.3 |
| 20260503194533 | 58 | 245 | 7.8 | 13.9 | 0.00 | 0.00 | 0.00 | 33 | 1011.3 |
| 20260503193027 | 57 | 277 | 0.9 | 11.3 | 0.00 | 0.00 | 0.00 | 32 | 1011.7 |
| 20260503191534 | 57 | 242 | 6.1 | 13.0 | 0.00 | 0.00 | 0.00 | 30 | 1012.0 |
| 20260503190024 | 57 | 217 | 2.6 | 13.0 | 0.00 | 0.00 | 0.00 | 34 | 1012.0 |
| 20260503184522 | 57 | 229 | 7.0 | 13.9 | 0.00 | 0.00 | 0.00 | 32 | 1012.1 |
| 20260503183020 | 57 | 244 | 1.7 | 16.5 | 0.00 | 0.00 | 0.00 | 33 | 1012.1 |
| 20260503181519 | 57 | 228 | 2.6 | 8.7 | 0.00 | 0.00 | 0.00 | 35 | 1012.4 |
| 20260503180024 | 56 | 236 | 2.6 | 9.6 | 0.00 | 0.00 | 0.00 | 37 | 1012.4 |
| 20260503174513 | 56 | 275 | 2.6 | 15.6 | 0.00 | 0.00 | 0.00 | 32 | 1012.6 |
| 20260503173012 | 55 | 243 | 1.7 | 12.2 | 0.00 | 0.00 | 0.00 | 34 | 1012.7 |
| 20260503171510 | 56 | 267 | 1.7 | 13.0 | 0.00 | 0.00 | 0.00 | 34 | 1012.8 |
| 20260503160115 | 53 | 268 | 3.5 | 12.2 | 0.00 | 0.00 | 0.00 | 38 | 1013.6 |
| 20260503081544 | 39 | 219 | 1.7 | 5.2 | 0.00 | 0.00 | 0.00 | 62 | 1013.3 |
| 20260503071541 | 38 | 316 | 1.7 | 4.3 | 0.00 | 0.00 | 0.00 | 62 | 1013.1 |
| 20260503054534 | 40 | 259 | 1.7 | 5.2 | 0.00 | 0.03 | 0.00 | 59 | 1012.9 |
| 20260503053024 | 40 | 229 | 1.7 | 4.3 | 0.00 | 0.03 | 0.00 | 58 | 1013.0 |
| 20260503051516 | 41 | 234 | 0.0 | 3.5 | 0.00 | 0.03 | 0.00 | 55 | 1013.1 |
| 20260503050015 | 41 | 255 | 0.0 | 5.2 | 0.00 | 0.03 | 0.00 | 56 | 1013.2 |